Погода в Глазуновке

Россия / Орловская область     52°29′56″N   36°19′40″E
темп.,
°C
ветер,
м/с
пор.,
м/с
влажн.,
%
обл.,
%
осадки,
мм/ч
давл.,
гПа
погр.,
м
4 декабря, сб
сб400:000з41094100 2.1 1006586
03:00−1з51092100 2.1 1008469
06:00−3зюз512925 0.0 1009412
09:00−4з5109598 0.0 1012473
12:00−3з6982100 0.1 1013744
15:00−1з5775100 0.1 1013884
18:00−4юз379355 0.0 1014170
21:00−4юз379434 0.0 1014165
5 декабря, вс
вс500:00−4ююз25945 0.0 1015119
03:00−4ююз239429 0.0 101582
06:00−3ю2491100 0.0 1015135
09:00−3ю2591100 0.0 1016168
12:00−1ююз3484100 0.0 1016241
15:00−2ююв2389100 0.0 101667
18:00−3ююв239377 0.0 101746
21:00−3ююв2490100 0.0 101885
6 декабря, пн
пн600:00−3ююв3586100 0.0 1018119
03:00−3ююв2586100 0.0 1019117
06:00−3ююв3684100 0.0 1019137
09:00−3юв4883100 0.0 1019194
12:00−2юв4978100 0.0 1019339
15:00−1юв4786100 0.0 1018300
18:00−2юв489189 0.0 1018243
21:00−1юв51193100 0.0 1017323
7 декабря, вт
вт700:00−1юв61397100 0.4 1016408
03:00+1юв71496100 4.4 1013475
06:00+1ююв51298100 0.8 1012398
09:00+1ю41099100 0.9 1011265
12:00+1ю37100100 0.0 1011155
15:00+2ююв35100100 0.1 1010107
18:00+2ююв38100100 1.1 1010167
21:00+2ю25100100 2.4 100996
8 декабря, ср
ср800:00+3ююв26100100 4.4 1008110
03:00+2юв24100100 7.2 100961
06:00+1юз01100100 0.4 101011
09:00+1ссв34100100 0.4 1011102
12:00+1св36100100 0.0 1010148
15:00+1св4899100 0.0 1009220
18:00+1всв51098100 0.0 1010279
21:00+1всв51098100 0.0 1010325